www.pogodaiklimat.ru

Погода и климат >> Архив погоды >> Аргентина >> Pilar


ПОГОДА в Pilar

  • Прогноз погоды в Pilar
  • Монитор погоды в Pilar
  • Климат города

АРХИВ ПОГОДЫ в Pilar

Время (UTC), дата Ветер
(напр.,м/с)
 
Видим.   Явления Облачность Т
(С)
Тd
(С)
f
(%)
Тe
(С)
Тes
(С)
Комфортность P
(гПа)
Po
(гПа)
Тmin
(С)
Tmax
(С)
R
(мм)
R24
(мм)
S
(см)
03 8.12 С 3 10 км ясно +18.4 +14.5 78 +19 +19 1020.9 981.8
06 8.12 С 3 10 км ясно +17.0 +14.4 85 +17 +17 1018.4 979.4
09 8.12 С 2 10 км 1/0
[Ci sp]
+14.5 +11.6 83 +14 +14 1017.4 978.4
12 8.12 С 7 10 км ясно +20.3 +10.2 52 +21 +23 комфорт 1016.7 977.8 +14.2 +22.0
15 8.12 С 9 10 км 8/0
[Ci]
+26.6 +11.8 40 +28 +30 жарко 1013.5 974.9
18 8.12 С 9 10 км 6/0
[Ci]
+29.9 +8.9 27 +29 +31 жарко 1009.7 971.3
21 8.12 С 7 10 км 3/0
[Ci]
+29.9 +9.2 28 +30 +31 жарко 1007.0 968.6
00 9.12 С 4 10 км ясно +25.4 +9.8 37 +26 +26 жарко 1007.9 969.4 +20.3 +31.0
03 9.12 С 2 10 км ясно +19.8 +12.0 61 +22 +22 комфорт 1009.1 970.6
06 9.12 С 2 10 км ясно +19.4 +12.1 63 +21 +21 комфорт 1007.4 969.3
09 9.12 С 3 10 км 3/1 600 м
[Sc Ac As]
+18.6 +12.2 66 +20 +20 1008.7 970.5
12 9.12 С 4 10 км 4/0
[Ac cast]
+24.5 +12.5 47 +26 +29 жарко 1010.8 972.6 +17.5 +25.4
15 9.12 С 2 10 км 3/3 750 м
[Cu hum]
+30.2 +15.9 42 +33 +47 душно 1010.2 972.0
18 9.12 В 2 10 км 6/6 750 м
[Cu med, cong]
+32.7 +15.8 36 +35 +42 душно 1009.0 971.0
21 9.12 ЮВ 2 10 км 1/1 600 м
[Cu hum]
+32.1 +16.0 38 +35 +39 очень
душно
1008.3 970.2
00 10.12 ЮВ 1 10 км ясно +28.5 +15.5 45 +31 +31 душно 1010.2 972.2 +24.5 +32.8
03 10.12 В 3 10 км ясно +24.3 +14.7 55 +27 +27 жарко 1013.3 975.3
06 10.12 Ю 1 10 км 3/3 600 м
[Sc]
+21.7 +16.0 70 +25 +25 комфорт 1013.1 975.0
09 10.12 З 2 10 км 3/3 900 м
[Cu med, cong]
+19.9 +15.9 78 +23 +23 комфорт 1013.5 975.3
12 10.12 С 2 10 км 4/3 600 м
[Cu hum Ac cast]
+25.1 +17.3 62 +29 +33 душно 1013.5 975.4 +18.6 +28.5
15 10.12 С 4 10 км ясно +31.5 +18.6 46 +36 +51 опасность
солнечного
удара
1011.1 973.2
18 10.12 С 7 10 км 6/6 600 м
[Cu hum]
+34.8 +19.3 40 +40 +42 очень
душно
1007.7 970.0
21 10.12 С 8 10 км 4/4 600 м
[Cu hum]
+35.0 +15.9 32 +37 +38 очень
душно
1005.3 967.6
00 11.12 С 6 10 км ясно +31.2 +16.6 42 +35 +35 очень
душно
1004.9 967.3 +25.1 +35.7
03 11.12 С 5 10 км ясно +29.1 +18.1 52 +34 +34 очень
душно
1005.9 968.5
06 11.12 С 4 10 км ясно +27.0 +18.3 59 +32 +32 очень
душно
1003.7 966.5
09 11.12 С 5 10 км 1/0
[Ac As]
+24.9 +17.6 64 +29 +29 душно 1003.8 966.5
12 11.12 СЗ 5 10 км ясно +30.1 +21.8 61 +38 +42 очень
душно
1004.8 967.4 +24.6 +31.2
15 11.12 З 2 10 км 5/5 660 м
[Cu hum]
+35.0 +22.4 48 +44 +54 опасность
перегрева
1004.4 967.3
18 11.12 ЮВ 5 10 км 4/4 600 м
[Cu med, cong]
+36.0 +19.9 39 +42 +47 опасность
перегрева
1003.3 966.2
21 11.12 Ю 6 10 км 4/3 600 м
[Sc Ac As]
+31.1 +20.4 53 +38 +39 очень
душно
1005.3 967.7
00 12.12 Ю 5 10 км 1/1 750 м
[Cb calv]
+25.9 +20.8 73 +32 +32 очень
душно
1008.0 970.2 +25.9 +37.0
03 12.12 Ю 3 10 км 10/10 360 м
[Sc]
+23.2 +20.1 83 +30 +30 очень
душно
1011.8 974.1
06 12.12 Ю 3 10 км 8/8 600 м
[Sc]
+21.8 +18.3 81 +27 +27 душно 1012.0 974.2
09 12.12 Ю 4 10 км слабый дождь 9/3 600 м
[Sc As op]
+21.6 +18.4 82 +26 +26 душно 1012.4 974.2
12 12.12 ЮВ 3 10 км {дождь} 10/10 600 м
[Sc]
+24.3 +18.7 71 +29 +29 душно 1014.8 976.5 +21.4 +25.9 0.0
15 12.12 ЮВ 3 10 км 9/5 600 м
[Sc Ac As]
+26.1 +18.7 64 +31 +35 очень
душно
1014.1 975.7
18 12.12 В 3 10 км 8/5 600 м
[Cu Sc Ac As]
+27.5 +18.6 58 +32 +37 очень
душно
1012.5 974.2
21 12.12 СВ 4 10 км 4/4 600 м
[Cu med, cong]
+28.1 +18.9 57 +33 +35 очень
душно
1010.0 971.8
00 13.12 С 3 10 км 5/5 750 м
[Cu Sc]
+25.5 +19.9 71 +31 +31 очень
душно
1010.5 972.2 +24.3 +29.0
03 13.12 С 2 10 км 5/5 900 м
[Sc]
+23.0 +20.6 86 +30 +30 очень
душно
1010.9 972.6
06 13.12 С 2 5000 м дождь {морось} 10/10 210 м
[St]
+22.0 +21.4 96 +29 +29 очень
душно
1008.1 970.0 0.0
09 13.12 С 5 8000 м слабая морось 10/10 150 м
[St]
+21.6 +20.8 95 +27 +27 душно 1006.6 968.5
12 13.12 С 4 10 км {морось} 10/10 540 м
[Sc]
+21.9 +20.5 92 +28 +28 душно 1005.8 967.6 +21.0 +25.5 0.5
15 13.12 С 5 10 км 3/1 600 м
[Cu hum Ac cuf]
+28.1 +19.6 60 +34 +42 очень
душно
1002.8 965.0
18 13.12 С 5 10 км 3/3 600 м
[Cu hum]
+34.6 +20.7 44 +41 +49 опасность
перегрева
998.4 961.0
21 13.12 СВ 6 10 км 5/1 600 м
[Cu med, cong Ac As Ci ing]
+35.5 +20.9 43 +43 +44 опасность
перегрева
995.8 958.6
00 14.12 С 4 10 км зарница 4/4 600 м
[Cb calv Ac As]
+31.3 +21.8 57 +40 +40 очень
душно
997.1 959.6 +22.0 +36.5
03 14.12 Ю 8 500 м гроза, ливневой дождь 10/8 240 м
[Cb cap As op]
+25.0 +21.1 79 +32 +32 очень
душно
999.1 961.4
06 14.12 Ю 4 2000 м гроза, ливневой дождь 10/8 240 м
[Cb cap As op]
+19.4 +19.1 98 +22 +22 комфорт 1002.0 964.4 19
09 14.12 Ю 6 10 км 8/3 600 м
[Sc Ac As Ci]
+18.5 +16.2 86 +19 +19 1007.5 969.7
12 14.12 Ю 7 10 км ясно +20.7 +13.9 65 +23 +25 комфорт 1010.6 972.5 +17.9 +31.3 0.0
15 14.12 Ю 7 10 км 1/1 600 м
[Cu hum]
+22.8 +12.8 53 +26 +31 жарко 1012.6 974.2
18 14.12 Ю 5 10 км ясно +24.8 +12.9 48 +27 +36 жарко 1012.4 973.8
21 14.12 В 4 10 км ясно +25.6 +11.3 41 +27 +30 жарко 1013.1 974.4

 

Местоположение метеостанции Pilar (Аргентина): широта -31.66 долгота -63.88 высота над уровнем моря 338 м.

В архиве по умолчанию представлена погода в Pilar за последнюю неделю. Архивные данные за месяц целиком и за предыдущие месяцы, начиная с января 2011 года, Вы можете получить, выбрав интересующий диапазон дат из раскрывающегося списка и нажав кнопку "Ввод!".


*Определитесь, кто Вы:
робот инопланетянин человек

Внимание! Время в таблицах - всемирное. Для получения местного времени необходимо прибавить поправку, которая в Pilar равна -3 ч.

Смотрите также архив погоды в соседних городах и на ближайших метеорологических станциях:

Погода в Cordoba (Аргентина) (50 км)
Погода в Villa Dolores (Аргентина) (122 км)
Погода в Rio Cuarto (Аргентина) (163 км)
Погода в Villa de Maria del Rio Seco (Аргентина) (197 км)
Погода в Marcos Juarez (Аргентина) (200 км)
Погода в Villa Reynolds (Аргентина) (270 км)
Погода в Ceres (Аргентина) (271 км)
Погода в Chamical (Аргентина) (271 км)
Погода в Laboulaye (Аргентина) (279 км)
Погода в Santa Fe (Аргентина) (291 км)

Пояснения к столбцам:

Ветер - указаны скорость ветра в м/с - средняя за 10 мин, порывы в срок и между сроками (в фигурных скобках) и направление, откуда дует ветер: С - северный, СВ - северо-восточный, В - восточный, ЮВ - юго-восточный, Ю - южный, ЮЗ - юго-западный, З - западный, СЗ - северо-западный.
Видимость - горизонтальная дальность видимости в метрах или километрах. При видимости от 1 до 10 км при отсутствии осадков обычно наблюдается дымка, при ухудшении видимости до 1 км и менее - туман. В сухую погоду видимость может ухудшаться дымом, пылью или мглою.
Явления - указаны атмосферные явления, наблюдавшиеся в срок или в последний час перед сроком; фигурными скобками обозначены явления, наблюдавшиеся между сроками (за 1-3 часа до срока); квадратными скобками обозначены град или гололедные отложения с указанием их диаметра в мм.
Облачность - указаны через наклонную черту общая и нижняя облачность в баллах и высота нижней границы облаков в метрах; квадратными скобками обозначены формы облаков: Ci - перистые, Cs - перисто-слоистые, Cc - перисто-кучевые, Ac - высококучевые, As - высокослоистые, Sc - слоисто-кучевые, Ns - слоисто-дождевые, Cu - кучевые, Cb - кучево-дождевые. Подробнее классификацию облаков см. в Атласе облаков (PDF).
T - Температура воздуха - температура, измеренная на высоте 2 м над землей.
Td - Температура точки росы - температура, при понижении до которой содержащийся в воздухе водяной пар достигнет насыщения.
f - Относительная влажность воздуха - влажноcть воздуха, измеренная на высоте 2 м над землей.
Te - Эффективная температура - температура, которую ощущает одетый по сезону человек в тени. Характеристика душности погоды. При расчете учитывается влияние влажности воздуха и скорости ветра на теплоощущения человека.
Tes - Эффективная температура на солнце - температура, которую ощущает человек, с поправкой на солнечный нагрев. Характеристика знойности погоды. Зависит от высоты солнца над горизонтом, облачности и скорости ветра. Ночью, в пасмурную погоду, а также при ветре 12 м/с и более поправка равна нулю.
P - Атмосферное давление - приведенное к уровню моря атмосферное давление.
Po - Атмосферное давление - измеренное на уровне метеостанции атмосферное давление.
Tmin - Минимальная температура - минимум температуры воздуха на высоте 2 м над землей.
Tmax - Максимальная температура - максимум температуры воздуха на высоте 2 м над землей.
R - Количество осадков - Количество выпавших осадков за период времени, мм. При наведении курсора мыши на число - период времени, за который выпало указанное количество осадков.
R24 - Количество осадков - Количество выпавших осадков за 24 часа, мм.
S - Снежный покров - Высота снежного покрова, см. При наведении курсора мыши на число - состояние снежного покрова и степень покрытия местности в баллах.